Weather History for KLKR - April, 2013

Change the Weather History Date:

Monday, April 29, 2013

  Actual Average (KUZA) Record (KUZA)
Temperature  
Mean Temperature 65 °F -  
Max Temperature 73 °F 74 °F 89 °F (1950)
Min Temperature 57 °F 52 °F 36 °F (1973)
Growing Degree Days 15 (Base 50)    
Moisture  
Dew Point 61 °F    
Average Humidity 95    
Maximum Humidity 100    
Minimum Humidity 69    
Precipitation  
Precipitation 0.00 in - - ()
Sea Level Pressure  
Sea Level Pressure 30.02 in    
Wind  
Wind Speed 0 mph (West)    
Max Wind Speed 5 mph    
Max Gust Speed -    
Visibility 6 miles    
Events Rain    
Averages and records for this station are not official NWS values.
T = Trace of Precipitation, MM = Missing Value Source: NWS Daily Summary

Daily Weather History Graph

Daily Weather History Graph

Search for Another Location

Airport or City:

Trip Planner

Search our weather history database for the weather conditions in past years. The results will help you decide how hot, cold, wet, or windy it might be!

Date:

Astronomy

Apr. 29, 2013 Rise Set
Actual Time 6:34 AM EDT 8:07 PM EDT
Civil Twilight 6:08 AM EDT 8:33 PM EDT
Nautical Twilight 5:35 AM EDT 9:06 PM EDT
Astronomical Twilight 5:02 AM EDT 9:40 PM EDT
Moon No Moon Rise 9:58 AM EDT (4/29)
Length of Visible Light 14h 25m
Length of Day
13h 32m
Waning Gibbous, 80% of the Moon is Illuminated
Apr 29
Waning Gibbous
May 2
Last Quarter
May 9
New
May 18
First Quarter
May 25
Full

Hourly Weather History & Observations

Time (EDT) Temp. Dew Point Humidity Pressure Visibility Wind Dir Wind Speed Gust Speed Precip Events Conditions
12:15 AM 57.2 °F 57.2 °F 100% 30.07 in 2.0 mi Calm Calm - N/A Rain Light Rain
12:35 AM 57.2 °F 57.2 °F 100% 30.06 in 5.0 mi Calm Calm - N/A Rain Light Rain
12:55 AM 57.2 °F 57.2 °F 100% 30.06 in 4.0 mi Calm Calm - N/A Rain Light Rain
1:15 AM 57.2 °F 57.2 °F 100% 30.06 in 2.5 mi Calm Calm - N/A Rain Light Rain
1:35 AM 57.2 °F 57.2 °F 100% 30.06 in 5.0 mi Calm Calm - N/A Rain Light Rain
1:55 AM 57.2 °F 57.2 °F 100% 30.05 in 7.0 mi Calm Calm - N/A Rain Light Rain
2:15 AM 57.2 °F 57.2 °F 100% 30.05 in 2.5 mi Calm Calm - N/A Rain Light Rain
2:35 AM 57.2 °F 57.2 °F 100% 30.05 in 4.0 mi Calm Calm - N/A Rain Light Rain
2:55 AM 57.2 °F 57.2 °F 100% 30.04 in 4.0 mi Calm Calm - N/A Rain Light Rain
3:15 AM 57.2 °F 57.2 °F 100% 30.04 in 2.5 mi Calm Calm - N/A Rain Light Rain
3:35 AM 57.2 °F 57.2 °F 100% 30.03 in 2.5 mi Calm Calm - N/A Rain Light Rain
3:55 AM 57.2 °F 57.2 °F 100% 30.03 in 5.0 mi Calm Calm - N/A Rain Light Rain
4:15 AM 57.2 °F 57.2 °F 100% 30.03 in 10.0 mi Calm Calm - N/A Rain Light Rain
4:35 AM 59.0 °F 59.0 °F 100% 30.03 in 5.0 mi Calm Calm - N/A Rain Light Rain
4:55 AM 57.2 °F 57.2 °F 100% 30.02 in 2.0 mi Calm Calm - N/A Rain Light Rain
5:15 AM 57.2 °F 57.2 °F 100% 30.02 in 3.0 mi Calm Calm - N/A Rain Light Rain
5:35 AM 57.2 °F 57.2 °F 100% 30.02 in 5.0 mi Calm Calm - N/A Rain Light Rain
5:55 AM 57.2 °F 57.2 °F 100% 30.03 in 3.0 mi Calm Calm - N/A Rain Light Rain
6:15 AM 57.2 °F 57.2 °F 100% 30.03 in 3.0 mi Calm Calm - N/A Rain Light Rain
6:35 AM 57.2 °F 57.2 °F 100% 30.02 in 3.0 mi NE 3.5 mph - N/A Rain Light Rain
6:55 AM 57.2 °F 57.2 °F 100% 30.03 in 2.5 mi WSW 3.5 mph - N/A Rain Light Rain
7:15 AM 59.0 °F 59.0 °F 100% 30.03 in 2.5 mi Calm Calm - N/A Rain Light Rain
7:35 AM 59.0 °F 59.0 °F 100% 30.02 in 3.0 mi Calm Calm - N/A Rain Light Rain
7:55 AM 59.0 °F 59.0 °F 100% 30.03 in 5.0 mi North 3.5 mph - N/A Rain Light Rain
8:15 AM 59.0 °F 59.0 °F 100% 30.04 in 6.0 mi Calm Calm - N/A Rain Light Rain
8:35 AM 59.0 °F 59.0 °F 100% 30.05 in 6.0 mi Calm Calm - N/A Rain Light Rain
8:55 AM 59.0 °F 59.0 °F 100% 30.05 in 7.0 mi Calm Calm - N/A Rain Light Rain
9:15 AM 59.0 °F 59.0 °F 100% 30.05 in 9.0 mi Calm Calm - N/A Rain Light Rain
9:35 AM 60.8 °F 60.8 °F 100% 30.05 in 10.0 mi NNW 3.5 mph - N/A Rain Light Rain
9:55 AM 60.8 °F 60.8 °F 100% 30.05 in 5.0 mi Calm Calm - N/A Rain Light Rain
10:15 AM 60.8 °F 60.8 °F 100% 30.06 in 7.0 mi WSW 4.6 mph - N/A Rain Light Rain
10:35 AM 60.8 °F 60.8 °F 100% 30.06 in 9.0 mi Calm Calm - N/A Rain Light Rain
10:55 AM 62.6 °F 62.6 °F 100% 30.06 in 10.0 mi Calm Calm - N/A Rain Light Rain
11:15 AM 62.6 °F 62.6 °F 100% 30.05 in 10.0 mi Calm Calm - N/A Rain Light Rain
11:35 AM 62.6 °F 62.6 °F 100% 30.06 in 10.0 mi Calm Calm - N/A Rain Light Rain
11:55 AM 64.4 °F 64.4 °F 100% 30.06 in 10.0 mi SW 3.5 mph - N/A Rain Light Rain
12:15 PM 66.2 °F 64.4 °F 94% 30.06 in 10.0 mi Calm Calm - N/A Rain Light Rain
12:35 PM 66.2 °F 64.4 °F 94% 30.05 in 10.0 mi Calm Calm - N/A Rain Light Rain
12:55 PM 66.2 °F 66.2 °F 100% 30.05 in 10.0 mi Calm Calm - N/A Rain Light Rain
1:15 PM 68.0 °F 64.4 °F 88% 30.04 in 10.0 mi Calm Calm - N/A Rain Light Rain
1:35 PM 68.0 °F 64.4 °F 88% 30.04 in 10.0 mi Calm Calm - N/A Rain Light Rain
1:55 PM 68.0 °F 64.4 °F 88% 30.03 in 10.0 mi WSW 3.5 mph - N/A Rain Light Rain
2:15 PM 69.8 °F 64.4 °F 83% 30.02 in 10.0 mi SW 3.5 mph - N/A Rain Light Rain
2:35 PM 68.0 °F 64.4 °F 88% 30.02 in 10.0 mi WSW 3.5 mph - N/A   Mostly Cloudy
2:55 PM 71.6 °F 64.4 °F 78% 30.01 in 10.0 mi Calm Calm - N/A   Mostly Cloudy
3:15 PM 71.6 °F 64.4 °F 78% 30.00 in 10.0 mi West 4.6 mph - N/A   Mostly Cloudy
3:35 PM 71.6 °F 62.6 °F 73% 29.99 in 10.0 mi Calm Calm - N/A   Partly Cloudy
3:55 PM 71.6 °F 62.6 °F 73% 29.98 in 10.0 mi Calm Calm - N/A   Mostly Cloudy
4:15 PM 71.6 °F 64.4 °F 78% 29.98 in 10.0 mi Calm Calm - N/A   Mostly Cloudy
4:55 PM 73.4 °F 62.6 °F 69% 29.97 in 10.0 mi Calm Calm - N/A   Scattered Clouds
5:15 PM 73.4 °F 62.6 °F 69% 29.96 in 10.0 mi Calm Calm - N/A   Mostly Cloudy
5:35 PM 73.4 °F 62.6 °F 69% 29.96 in 10.0 mi Calm Calm - N/A   Scattered Clouds
5:55 PM 71.6 °F 66.2 °F 83% 29.96 in 10.0 mi Calm Calm - N/A   Partly Cloudy
6:15 PM 71.6 °F 68.0 °F 88% 29.96 in 10.0 mi Calm Calm - N/A   Clear
6:35 PM 71.6 °F 68.0 °F 88% 29.96 in 10.0 mi Calm Calm - N/A   Clear
6:55 PM 71.6 °F 68.0 °F 88% 29.96 in 10.0 mi Calm Calm - N/A   Clear
7:15 PM 71.6 °F 66.2 °F 83% 29.96 in 10.0 mi Calm Calm - N/A   Clear
7:35 PM 68.0 °F 68.0 °F 100% 29.97 in 10.0 mi Calm Calm - N/A   Clear
7:55 PM 66.2 °F 66.2 °F 100% 29.98 in 10.0 mi Calm Calm - N/A   Clear
8:15 PM 64.4 °F 64.4 °F 100% 29.98 in 8.0 mi Calm Calm - N/A   Clear
8:35 PM 64.4 °F 64.4 °F 100% 29.99 in 3.0 mi Calm Calm - N/A   Clear
8:55 PM 62.6 °F 62.6 °F 100% 29.99 in 5.0 mi Calm Calm - N/A   Partly Cloudy
9:15 PM 62.6 °F 62.6 °F 100% 29.99 in 5.0 mi Calm Calm - N/A   Partly Cloudy
9:35 PM 62.6 °F 62.6 °F 100% 30.00 in 4.0 mi Calm Calm - N/A   Scattered Clouds
9:55 PM 60.8 °F 60.8 °F 100% 30.00 in 3.0 mi Calm Calm - N/A   Partly Cloudy
10:15 PM 59.0 °F 59.0 °F 100% 30.01 in 1.8 mi Calm Calm - N/A   Scattered Clouds
10:35 PM 59.0 °F 59.0 °F 100% 30.01 in 1.5 mi Calm Calm - N/A   Clear
10:55 PM 59.0 °F 59.0 °F 100% 30.01 in 2.0 mi Calm Calm - N/A   Clear
11:15 PM 57.2 °F 57.2 °F 100% 30.01 in 2.5 mi Calm Calm - N/A   Scattered Clouds
11:35 PM 59.0 °F 59.0 °F 100% 30.01 in 4.0 mi Calm Calm - N/A   Mostly Cloudy
11:55 PM 59.0 °F 59.0 °F 100% 30.01 in 2.5 mi Calm Calm - N/A   Mostly Cloudy